Airfield :
LOGIN :

Register | Disclaimer

   EN    FR    IT 

 










Legend :    VFR   Marginal VFR   IFR   Intensive IFR   Very Intensive IFR
Visi :
Ceiling :
>= 8 km
>= 3000ft
5 to 8 km
1000 to 3000 ft
1500m to 5 km
500 to 1000 ft
800 to 1500m
200 to 500 ft
< 800m
< 200 ft
Symbols :   Thunderstorms  Fog  Heavy snow  Heavy precipitations  Wind > 20 kt
SIGMETs :     Misc.  Thunderstorms  Icing  Turbulence  Mountain Waves  Volcanic Ashes







- Airport Elevation : 348 ft
- IATA code : LDV
- Download approach charts


LFRJ - Landivisiau

CURRENT METAR :
  • 211430Z AUTO 03007KT 360V070 9999 FEW021 BKN028 BKN037 22/16 Q1015

EXPIRED METARs :
  • 211400Z AUTO 04005KT 9999 BKN020 BKN027 BKN034 22/17 Q1014
  • 211330Z AUTO VRB03KT 9999 SCT022 SCT029 BKN037 23/15 Q1014
  • 211300Z AUTO VRB02KT 9999 SCT022 BKN031 BKN038 22/16 Q1014
  • 211230Z AUTO VRB03KT 9999 BKN019 BKN026 BKN036 21/16 Q1014
  • 211200Z AUTO 05007KT 010V080 9999 SCT009 BKN015 BKN020 20/17 Q1014

Expired Forecast.
No reported NOTAMs for that airfield.



MET'MAP, your aeronautical weather chart ! - Copyright ORBIFLY December 2007 - Disclaimer

ORBIFLY MET'MAP TEAM :

Programming & Development : Alexandra Zaïnal
Concept & Development : Baudouin d'Aumeries
Co-Development & Prog : Marc-Olivier Méhu
Technical & hardware support : Manuel Goepfert

Contact : metmap@orbifly.com




SOURCES & CREDITS :

   NOAA